Location: Newark
(35.8833°N, 14.5000°E)
Time: 10:59:50
(UTC+00:00)

Vanguard 2 Rocket - All Passes

Search period start: 15 November 2019 00:00
Search period end: 25 November 2019 00:00
Orbit: 554 x 3326 km, 32.9° (Epoch: 13 November)

Date Brightness Start Highest point End Pass type
(mag) Time Alt. Az. Time Alt. Az. Time Alt. Az.
15 Nov - 00:03:12 10° SSW 00:06:46 25° SSE 00:11:30 10° E night (unlit)
15 Nov - 02:13:57 10° WSW 02:19:13 67° S 02:28:21 10° E visible
15 Nov - 04:25:54 10° W 04:33:11 67° S 04:46:29 10° ESE visible
15 Nov - 06:38:50 10° W 06:48:24 42° SSW 07:03:44 10° SE daylight
15 Nov - 08:55:38 10° WSW 09:04:35 19° SW 09:15:39 10° S daylight
15 Nov - 23:05:42 10° S 23:07:49 14° SE 23:10:09 10° ESE night (unlit)
16 Nov - 01:15:17 10° WSW 01:19:47 54° SSE 01:26:57 10° E visible
16 Nov - 03:26:58 10° W 03:33:08 70° S 03:44:19 10° ESE visible
16 Nov - 05:39:21 10° W 05:47:43 49° SSW 06:02:03 10° SE daylight
16 Nov - 07:54:08 10° WSW 08:03:28 25° SSW 08:16:15 10° SSE daylight
17 Nov - 00:16:44 10° SW 00:20:38 38° SSE 00:26:01 10° E visible
17 Nov - 02:28:09 10° W 02:33:24 70° S 02:42:30 10° E visible
17 Nov - 04:40:12 10° W 04:47:22 55° SSW 05:00:07 10° ESE visible
17 Nov - 06:53:44 10° W 07:02:32 30° SSW 07:15:48 10° SSE daylight
17 Nov - 09:17:25 10° SW 09:18:45 10° SW 09:20:07 10° SSW daylight
17 Nov - 23:18:24 10° SSW 23:21:36 23° SSE 23:25:23 10° E night (unlit)
18 Nov - 01:29:24 10° WSW 01:33:55 64° S 01:41:09 10° E visible
18 Nov - 03:41:14 10° W 03:47:20 61° S 03:58:13 10° ESE visible
18 Nov - 05:53:58 10° W 06:01:53 36° SSW 06:14:43 10° SE daylight
18 Nov - 08:11:04 10° WSW 08:17:39 15° SSW 08:25:42 10° S daylight
18 Nov - 22:20:35 10° S 22:22:35 13° SSE 22:24:38 10° ESE night (unlit)
19 Nov - 00:30:39 10° WSW 00:34:39 51° SSE 00:40:19 10° E visible
19 Nov - 02:42:24 10° W 02:47:36 65° S 02:56:34 10° ESE visible
19 Nov - 04:54:38 10° W 05:01:33 42° SSW 05:13:19 10° SE visible
19 Nov - 07:09:26 10° WSW 07:16:46 20° SSW 07:26:43 10° S daylight
19 Nov - 23:31:56 10° SW 23:35:34 36° SSE 23:39:57 10° E night (unlit)
20 Nov - 01:43:35 10° W 01:48:07 66° S 01:55:19 10° E visible
20 Nov - 03:55:35 10° W 04:01:32 48° SSW 04:11:50 10° SE visible
20 Nov - 06:09:04 10° WSW 06:16:09 25° SSW 06:26:35 10° SSE daylight
20 Nov - 22:33:18 10° SSW 22:36:31 23° SSE 22:39:51 10° ESE night (unlit)
21 Nov - 00:44:46 10° WSW 00:48:49 61° S 00:54:33 10° E visible
21 Nov - 02:56:41 10° W 03:01:49 54° S 03:10:28 10° ESE visible
21 Nov - 05:09:23 10° W 05:15:49 30° SSW 05:25:54 10° SSE visible
21 Nov - 07:28:07 10° SW 07:31:07 11° SSW 07:34:25 10° SSW daylight
21 Nov - 21:34:51 10° SSW 21:37:24 15° SSE 21:39:46 10° ESE night (unlit)
21 Nov - 23:45:51 10° WSW 23:49:39 49° SSE 23:54:16 10° E night (unlit)
22 Nov - 01:57:51 10° W 02:02:20 59° S 02:09:24 10° ESE visible
22 Nov - 04:10:07 10° W 04:15:47 35° SSW 04:24:58 10° SE visible
22 Nov - 06:25:25 10° WSW 06:30:28 15° SSW 06:36:55 10° S daylight
22 Nov - 20:37:42 10° SSE 20:38:06 10° SSE 20:38:29 10° SSE night (unlit)
22 Nov - 22:46:52 10° SW 22:50:34 36° SSE 22:54:24 10° E night (unlit)
23 Nov - 00:58:58 10° W 01:03:01 62° S 01:08:43 10° ESE visible
23 Nov - 03:11:05 10° W 03:16:02 40° SSW 03:24:02 10° SE visible
23 Nov - 05:24:50 10° WSW 05:30:08 19° SSW 05:37:28 10° SSE daylight
23 Nov - 21:47:46 10° SW 21:51:28 26° SSE 21:54:47 10° ESE night (unlit)
24 Nov - 00:00:00 10° WSW 00:03:50 58° S 00:08:30 10° E night (unlit)
24 Nov - 02:12:09 10° W 02:16:32 46° SSW 02:23:16 10° ESE visible
24 Nov - 04:25:05 10° WSW 04:30:05 23° SSW 04:37:23 10° SSE visible
24 Nov - 20:48:38 10° SSW 20:52:15 19° SSE 20:55:16 10° ESE night (unlit)
24 Nov - 23:00:48 10° WSW 23:04:43 50° S 23:08:43 10° E night (unlit)
